• Processing (Info)

  • MPEC 2006-R15 : 2006 RZ

    The following Minor Planet Electronic Circular may be linked-to from your own Web pages, but must not otherwise be redistributed electronically.

    A form allowing access to any MPEC is at the bottom of this page.


    Read MPEC 2006-R14 Read MPEC 2006-R16


    M.P.E.C. 2006-R15                                Issued 2006 Sept. 6, 13:16 UT
    
         The Minor Planet Electronic Circulars contain information on unusual
             minor planets and routine data on comets.  They are published
       on behalf of Commission 20 of the International Astronomical Union by the
              Minor Planet Center, Smithsonian Astrophysical Observatory,
                              Cambridge, MA 02138, U.S.A.
    
                      Supported in part by the Brinson Foundation
                      Supported in part by the TABASGO Foundation
                 Prepared using the Tamkin Foundation Computer Network
    
                                  MPC@CFA.HARVARD.EDU
              URL http://cfa-www.harvard.edu/iau/mpc.html  ISSN 1523-6714
    
                                        2006 RZ
    
    Observations:
         K06R00Z  C2006 09 01.24777 22 29 22.17 +16 54 44.7          19.5   ER015704
         K06R00Z  C2006 09 01.26980 22 29 21.26 +16 55 00.1          19.8   ER015704
         K06R00Z  C2006 09 01.28075 22 29 20.77 +16 55 07.3          19.7   ER015704
         K06R00Z  C2006 09 01.29170 22 29 20.32 +16 55 14.5          19.6   ER015704
         K06R00Z* C2006 09 04.86520 22 27 24.76 +17 36 14.7          18.7 V ER015240
         K06R00Z  C2006 09 04.86786 22 27 24.63 +17 36 17.0          18.5 V ER015240
         K06R00Z  C2006 09 04.87318 22 27 24.38 +17 36 20.8          18.4 V ER015240
         K06R00Z  C2006 09 04.87584 22 27 24.27 +17 36 22.5          18.6 V ER015240
         K06R00Z  C2006 09 05.91990 22 26 45.98 +17 48 30.4          18.3 V ER015240
         K06R00Z  C2006 09 05.92123 22 26 45.91 +17 48 31.4          18.3 V ER015240
         K06R00Z  C2006 09 05.92256 22 26 45.85 +17 48 32.6          18.4 V ER015240
         K06R00Z  C2006 09 05.92521 22 26 45.71 +17 48 34.9          18.6 V ER015240
         K06R00Z  C2006 09 05.95578 22 26 44.19 +17 48 56.5          17.9 V ER015240
         K06R00Z  C2006 09 05.95844 22 26 44.09 +17 48 58.3          18.6 V ER015240
    
    Observer details:
    704 Lincoln Laboratory ETS, New Mexico.  Observers M. Bezpalko, L. Manguso,
        D. Torres, R. Kracke, H. Love, G. Spitz, J. Kistler.  Measurers J. Stuart,
        J. Kommers.  1.0-m f/2.15 reflector + CCD.
    240 Herrenberg.  Observer H. Michels.  0.40-m f/5 reflector + CCD.
    
    Orbital elements:
    2006 RZ                                             PHA, Earth MOID = 0.0124 AU
    Epoch 2006 Sept. 22.0 TT = JDT 2454000.5                MPC
    M 347.03660              (2000.0)            P               Q
    n   0.27461034     Peri.  221.83784     +0.52028934     -0.85280217
    a   2.3441827      Node   196.96677     +0.81874943     +0.51311548
    e   0.6256469      Incl.    8.87619     +0.24279285     +0.09716463
    P   3.59           H   20.0           G   0.15           U   8
    Residuals in seconds of arc
    060901 704  0.5+  0.3+    060904 240  0.1-  0.1+    060905 240  0.4+  0.1-
    060901 704  0.3+  0.3+    060904 240  0.3-  0.1+    060905 240  0.2+  0.3+
    060901 704  0.3-  0.1-    060904 240  0.2-  0.1-    060905 240  0.7-  0.4+
    060901 704  0.3-  0.4-    060905 240  0.5+  0.4-    060905 240  0.3-  0.4+
    060904 240  0.1+  0.3-    060905 240  0.4+  0.4-
    
    Ephemeris:
    2006 RZ                  a,e,i = 2.34, 0.63, 9                   q = 0.8776
    Date    TT    R. A. (2000) Decl.     Delta      r     Elong.  Phase     V
    2006 09 02    22 28.98   +17 03.5    0.281    1.268   154.6    19.9    18.8
    2006 09 12    22 22.42   +19 02.4    0.193    1.182   152.7    23.0    17.9
    2006 09 22    22 11.13   +21 44.0    0.113    1.099   146.2    30.5    16.8
    2006 10 02    21 26.81   +31 37.3    0.0368   1.024   128.3    50.1    14.7
    2006 10 12    11 08.47   -04 41.3    0.0438   0.960    29.8   148.9    21.3
    2006 10 22    10 46.04   -12 54.2    0.121    0.912    43.9   130.9    21.0
    2006 11 01    10 48.17   -14 46.4    0.200    0.884    52.1   117.7    20.9
    2006 11 11    10 57.29   -15 48.2    0.278    0.879    58.8   105.5    20.9
    2006 11 21    11 09.77   -16 42.0    0.352    0.897    64.9    94.3    20.9
    2006 12 01    11 23.13   -17 33.2    0.416    0.937    71.0    84.2    20.9
    2006 12 11    11 35.52   -18 18.5    0.469    0.995    77.5    75.1    21.0
    2006 12 21    11 45.36   -18 51.3    0.509    1.065    84.7    66.8    21.0
    2006 12 31    11 51.32   -19 02.1    0.537    1.145    93.0    59.0    21.1
    2007 01 10    11 52.48   -18 41.8    0.555    1.230   102.6    51.3    21.1
    2007 01 20    11 48.19   -17 40.1    0.567    1.318   113.7    43.1    21.0
    2007 01 30    11 38.52   -15 48.1    0.581    1.408   126.2    34.4    21.0
    2007 02 09    11 24.64   -13 05.1    0.602    1.498   139.9    25.1    20.9
    2007 02 19    11 08.61   -09 42.3    0.639    1.588   153.9    15.9    20.9
    2007 03 01    10 53.13   -06 04.4    0.697    1.676   166.0     8.2    20.9
    2007 03 11    10 40.40   -02 39.5    0.780    1.762   167.5     7.0    21.2
    2007 03 21    10 31.59   +00 13.2    0.886    1.847   158.0    11.7    21.8
    2007 03 31    10 26.96   +02 25.7    1.014    1.930   147.1    16.3    22.3
    
    Timothy B. Spahr             (C) Copyright 2006 MPC           M.P.E.C. 2006-R15
    

    Read MPEC 2006-R14 Read MPEC 2006-R16


    MPEC number:

    Enter an MPEC number in one of the following forms:

    • 1997-B01 (the full form)
    • J97B01 (the packed version of the full form)
    • B01 (the abbreviated form)